[[{"header":{"parameterUnit":"m.s-1","parameterCategory":1,"la1":30.2991,"la2":30.254,"lo1":-89.0895,"lo2":-89.0444,"dy":0.0017,"dx":0.0017,"nx":28,"ny":28,"refTime":"2024-10-04T03:00:00:Z","depth":0,"parameterNumber":2,"parameterNumberName":"U-component_of_WINDS"},"data":[0,0,0,0,0,0,0,0,0,0,0,0,0,0,0,0,0,0,0,0,0,0,0,0,0,0,0,0,0,0,0,0,0,0,0,0,0,0,0,0,0,0,0,0,0,0,0,0,0,0,0,0,0,0,0,0,0,0,-2.4093,-2.4095,0,-2.4292,-2.4294,-2.4297,-2.4327,-2.4325,-2.4323,-2.4322,-2.4533,-2.454,-2.4547,0,0,0,0,0,0,0,0,0,0,0,0,0,-2.3746,-2.3752,-2.4093,-2.4095,-2.4098,-2.4292,-2.4294,-2.4297,-2.4327,-2.4325,-2.4323,-2.4321,-2.453,-2.4539,-2.4548,0,0,0,0,0,0,0,0,0,0,0,0,0,-2.3916,-2.3754,-2.4092,-2.4136,-2.4142,-2.4291,-2.4294,-2.4298,-2.4328,-2.4325,-2.4322,-2.432,-2.4527,-2.4538,-2.4549,-2.4671,0,0,-2.4582,-2.4587,0,0,0,0,0,0,0,0,-2.3906,-2.3929,-2.4127,-2.4133,-2.414,-2.4282,-2.4249,-2.4423,-2.4328,-2.4257,-2.4322,-2.4319,-2.4452,-2.4469,-2.4512,-2.468,-2.4689,-2.4583,-2.459,-2.4595,-2.4598,0,0,0,0,0,0,0,-2.3894,-2.392,-2.4172,-2.413,-2.4138,-2.4148,-2.4169,-2.4282,-2.4368,-2.4263,-2.4266,-2.4289,-2.4455,-2.4502,-2.4518,-2.4693,-2.4583,-2.4593,-2.4599,-2.4604,-2.497,-2.4973,0,0,0,0,0,0,-2.3874,-2.391,-2.4166,-2.4178,-2.4014,-2.4156,-2.418,-2.4239,-2.4366,-2.4383,-2.4291,-2.429,-2.4484,-2.4505,-2.4525,-2.4675,-2.4595,-2.4605,-2.4611,-2.4967,-2.4971,-2.4974,0,0,0,0,0,0,-2.3866,-2.3896,-2.4157,-2.4045,-2.4079,-2.4165,-2.4231,-2.4245,-2.4291,-2.4387,-2.4403,-2.4323,-2.4483,-2.451,-2.4634,-2.4683,-2.461,-2.462,-2.4963,-2.4968,-2.4973,-2.4976,0,0,0,0,0,0,-2.3856,-2.3893,-2.3939,-2.4045,-2.4085,-2.426,-2.4234,-2.425,-2.4309,-2.4309,-2.4421,-2.4437,-2.4483,-2.4617,-2.4644,-2.4696,-2.4628,-2.4959,-2.4966,-2.4971,-2.4971,-2.498,-2.4987,0,0,0,0,0,-2.3843,-2.3933,-2.3941,-2.3971,-2.4143,-2.4263,-2.4286,-2.4335,-2.4313,-2.436,-2.4422,-2.4434,-2.4673,-2.4629,-2.4661,-2.4716,-2.4957,-2.4964,-2.4971,-2.4968,-2.4978,-2.4987,0,0,0,0,0,0,-2.3832,-2.3948,-2.3958,-2.4084,-2.4163,-2.4268,-2.4329,-2.4344,-2.4433,-2.4429,-2.4489,-2.4514,-2.4634,-2.4689,-2.4638,-2.4841,-2.4813,-2.4827,-2.4801,-2.4811,-2.4819,-2.4802,-2.4637,0,0,0,0,0,-2.3844,-2.393,-2.4028,-2.413,-2.4169,-2.4242,-2.4296,-2.4327,-2.4412,-2.4447,-2.4518,-2.4602,-2.4696,-2.4757,-2.4849,-2.498,-2.5005,-2.5034,-2.5042,-2.5048,-2.5059,-2.5131,-2.5145,-2.4998,-2.4998,-2.4998,0,0,-2.387,-2.3944,-2.3995,-2.413,-2.4194,-2.4283,-2.427,-2.4365,-2.4432,-2.4462,-2.4582,-2.4637,-2.4736,-2.4863,-2.4923,-2.4912,-2.5105,-2.5057,-2.5061,-2.5069,-2.514,-2.5154,-2.5166,-2.5003,-2.5002,-2.5001,0,0,-2.3963,-2.4028,-2.4119,-2.4184,-2.4281,-2.4329,-2.4351,-2.4454,-2.4491,-2.4612,-2.4636,-2.4718,-2.488,-2.4948,-2.5004,-2.5123,-2.5137,-2.5152,-2.5192,-2.5262,-2.5273,-2.5284,-2.5325,-2.5339,-2.5162,-2.5162,-2.5162,0,-2.3984,-2.4116,-2.4165,-2.4259,-2.4317,-2.4346,-2.444,-2.4502,-2.4625,-2.4666,-2.4651,-2.4853,-2.4922,-2.5065,-2.5094,-2.5139,-2.5167,-2.5138,-2.5267,-2.5278,-2.5289,-2.5329,-2.5345,-2.5163,-2.5163,-2.5163,-2.5163,0,-2.4136,-2.4229,-2.4291,-2.4406,-2.4473,-2.4566,-2.4631,-2.4693,-2.4718,-2.4768,-2.4891,-2.4974,-2.5083,-2.512,-2.5147,-2.5268,-2.5258,-2.5255,-2.5228,-2.5303,-2.5342,-2.5358,-2.5165,-2.5165,-2.5164,-2.5164,0,0,-2.4227,-2.4367,-2.4389,-2.4441,-2.4551,-2.4624,-2.472,-2.4824,-2.4875,-2.4961,-2.5042,-2.5178,-2.5176,-2.5239,-2.5275,-2.5336,-2.5424,-2.5326,-2.5329,-2.534,-2.5561,-2.5561,-2.5578,-2.5434,-2.5437,-2.544,-2.5552,0,-2.4331,-2.4498,-2.4545,-2.4688,-2.4773,-2.4802,-2.4886,-2.4963,-2.5013,-2.5095,-2.5152,-2.5246,-2.5236,-2.5274,-2.5337,-2.5399,-2.5469,-2.5393,-2.5512,-2.5515,-2.5484,-2.5598,-2.5599,-2.5701,-2.5568,-2.557,-2.5572,0,-2.4474,-2.4558,-2.4708,-2.4806,-2.4844,-2.4918,-2.5016,-2.5094,-2.5183,-2.5216,-2.5286,-2.5316,-2.5418,-2.5387,-2.553,-2.5477,-2.5529,-2.5567,-2.5573,-2.5584,-2.5547,-2.5612,-2.5735,-2.5749,-2.5597,-2.5595,-2.5593,0,-2.4523,-2.4675,-2.4783,-2.4828,-2.4945,-2.4996,-2.5048,-2.5134,-2.5193,-2.5281,-2.532,-2.542,-2.5475,-2.5552,-2.5608,-2.5581,-2.5746,-2.572,-2.5776,-2.5775,-2.5808,-2.5805,-2.5939,-2.5845,-2.5845,-2.5844,-2.5844,0,-2.4633,-2.4723,-2.4806,-2.4873,-2.4976,-2.503,-2.5131,-2.5185,-2.5261,-2.5341,-2.5374,-2.5448,-2.5519,-2.5603,-2.5649,-2.5759,-2.5785,-2.5814,-2.5825,-2.581,-2.5806,-2.5844,-2.5837,-2.5849,-2.5848,-2.5847,-2.5846,0,-2.4704,-2.4763,-2.4883,-2.4984,-2.5011,-2.5082,-2.517,-2.5237,-2.5288,-2.5388,-2.5415,-2.5496,-2.5597,-2.5661,-2.5791,-2.5821,-2.5942,-2.5952,-2.5911,-2.5915,-2.5967,-2.5961,-2.613,-2.6154,-2.6044,-2.6045,-2.6046,0,-2.4769,-2.4839,-2.4946,-2.5,-2.5051,-2.5139,-2.5198,-2.5256,-2.5317,-2.5424,-2.5478,-2.5581,-2.5665,-2.5826,-2.5898,-2.5997,-2.6008,-2.6061,-2.6024,-2.6006,-2.6007,-2.6002,-2.6009,-2.6066,-2.6067,-2.6068,-2.6068,0,-2.4879,-2.4904,-2.4988,-2.5082,-2.5151,-2.5229,-2.5307,-2.535,-2.5421,-2.5489,-2.5591,-2.5656,-2.5787,-2.5889,-2.5994,-2.6051,-2.6072,-2.6079,-2.6097,-2.6082,-2.6055,-2.6069,-2.5925,-2.6075,-2.6074,-2.6074,-2.6073,-2.6073,-2.4948,-2.5011,-2.5095,-2.5187,-2.5251,-2.5323,-2.539,-2.5449,-2.5534,-2.5642,-2.5672,-2.5779,-2.5867,-2.6011,-2.6069,-2.6155,-2.6148,-2.6175,-2.6181,-2.6186,-2.6186,-2.6042,-2.6175,-2.6175,-2.6174,-2.6174,-2.6174,0,-2.5058,-2.5113,-2.5197,-2.5303,-2.5376,-2.5387,-2.5474,-2.5535,-2.5627,-2.5706,-2.5788,-2.5906,-2.6004,-2.6084,-2.6186,-2.6239,-2.6252,-2.6264,-2.626,-2.6272,-2.6187,-2.616,-2.6252,-2.6252,-2.6252,-2.6252,-2.6252,-2.6252,-2.5123,-2.5229,-2.5265,-2.5403,-2.546,-2.5561,-2.561,-2.5677,-2.574,-2.5868,-2.5949,-2.6,-2.608,-2.6188,-2.6279,-2.6301,-2.6336,-2.6346,-2.6369,-2.6287,-2.6279,-2.627,-2.6245,-2.6354,-2.6354,-2.6448,-2.6448,-2.6449]},{"header":{"parameterUnit":"m.s-1","parameterCategory":1,"la1":30.2991,"la2":30.254,"lo1":-89.0895,"lo2":-89.0444,"dy":0.0017,"dx":0.0017,"nx":28,"ny":28,"refTime":"2024-10-04T03:00:00:Z","depth":0,"parameterNumber":3,"parameterNumberName":"V-component_of_WINDS"},"data":[0,0,0,0,0,0,0,0,0,0,0,0,0,0,0,0,0,0,0,0,0,0,0,0,0,0,0,0,0,0,0,0,0,0,0,0,0,0,0,0,0,0,0,0,0,0,0,0,0,0,0,0,0,0,0,0,0,0,0.7975,0.7976,0,0.8122,0.8124,0.8126,0.8175,0.8174,0.8173,0.8173,0.8315,0.832,0.8324,0,0,0,0,0,0,0,0,0,0,0,0,0,0.7727,0.7731,0.7974,0.7976,0.7978,0.8122,0.8124,0.8126,0.8175,0.8174,0.8173,0.8173,0.8314,0.8319,0.8324,0,0,0,0,0,0,0,0,0,0,0,0,0,0.785,0.7732,0.7974,0.802,0.8026,0.8122,0.8124,0.8127,0.8175,0.8174,0.8173,0.8172,0.8312,0.8319,0.8325,0.8384,0,0,0.8345,0.8348,0,0,0,0,0,0,0,0,0.7843,0.7859,0.8011,0.8017,0.8024,0.8129,0.8089,0.8212,0.8175,0.8118,0.8173,0.8172,0.8254,0.8265,0.8294,0.839,0.8396,0.8346,0.835,0.8352,0.8354,0,0,0,0,0,0,0,0.7834,0.7853,0.8033,0.8014,0.8021,0.8031,0.8047,0.8113,0.8189,0.8123,0.8127,0.8144,0.8257,0.8288,0.8298,0.8399,0.8345,0.8351,0.8355,0.8358,0.855,0.8551,0,0,0,0,0,0,0.7819,0.7845,0.8028,0.8037,0.7929,0.8036,0.8054,0.8096,0.8188,0.8202,0.8145,0.8146,0.8277,0.829,0.8303,0.8379,0.8352,0.8358,0.8362,0.8549,0.855,0.8551,0,0,0,0,0,0,0.7814,0.7835,0.8022,0.7943,0.7967,0.8041,0.8088,0.8099,0.8131,0.8205,0.8218,0.8163,0.8277,0.8294,0.8364,0.8384,0.8361,0.8367,0.8547,0.8549,0.8551,0.8529,0,0,0,0,0,0,0.7806,0.7833,0.7858,0.7943,0.7971,0.8083,0.8089,0.8103,0.8143,0.8146,0.8226,0.8238,0.8278,0.8354,0.837,0.8393,0.8372,0.8546,0.8548,0.855,0.8528,0.8529,0.8531,0,0,0,0,0,0.7797,0.7843,0.7859,0.788,0.8004,0.8084,0.81,0.8147,0.8145,0.8169,0.8217,0.8235,0.8379,0.8361,0.838,0.8404,0.8545,0.8547,0.855,0.8527,0.8529,0.8531,0,0,0,0,0,0,0.7755,0.7855,0.7873,0.7949,0.8008,0.8092,0.8124,0.8147,0.8206,0.8206,0.8259,0.8277,0.8342,0.838,0.8358,0.8466,0.8463,0.8469,0.8439,0.8441,0.8443,0.8432,0.8378,0,0,0,0,0,0.7755,0.7814,0.7897,0.7956,0.7985,0.8049,0.8086,0.8117,0.8179,0.8204,0.8256,0.8313,0.8371,0.8408,0.8466,0.8534,0.8551,0.8559,0.8561,0.8562,0.8567,0.8605,0.861,0.856,0.856,0.856,0,0,0.7755,0.7817,0.785,0.7949,0.7999,0.8056,0.807,0.813,0.8173,0.8212,0.8282,0.8322,0.8389,0.8459,0.8492,0.8492,0.8584,0.8565,0.8565,0.857,0.8608,0.8613,0.8617,0.8562,0.8562,0.8561,0,0,0.7784,0.7837,0.7893,0.7942,0.8018,0.8061,0.8074,0.8155,0.8185,0.8257,0.8288,0.8337,0.8436,0.8483,0.852,0.8568,0.8587,0.8584,0.8592,0.8628,0.8632,0.8636,0.8653,0.8658,0.8589,0.8589,0.8589,0,0.7773,0.7864,0.7917,0.7977,0.8019,0.806,0.8115,0.816,0.8249,0.8276,0.8276,0.8402,0.8449,0.8531,0.8542,0.8571,0.8586,0.8576,0.8628,0.8632,0.8637,0.8653,0.8659,0.8588,0.8588,0.8588,0.8588,0,0.7847,0.791,0.7945,0.8034,0.808,0.8136,0.8195,0.8235,0.8262,0.8304,0.8376,0.8435,0.8506,0.8527,0.8553,0.8612,0.861,0.8618,0.8616,0.864,0.8656,0.8663,0.8587,0.8587,0.8588,0.8588,0,0,0.7854,0.7973,0.7985,0.8026,0.8113,0.8161,0.8218,0.8291,0.8323,0.8383,0.8432,0.8515,0.8524,0.8565,0.8597,0.8629,0.8663,0.8634,0.8636,0.8637,0.8731,0.8724,0.8731,0.8677,0.8678,0.8679,0.8725,0,0.7894,0.8003,0.8053,0.8138,0.8196,0.8236,0.8286,0.8344,0.8384,0.8437,0.848,0.8539,0.8546,0.8572,0.8605,0.8652,0.8683,0.8649,0.872,0.8722,0.8703,0.8739,0.8733,0.8773,0.8732,0.8733,0.8734,0,0.7956,0.802,0.8113,0.8194,0.822,0.8264,0.8335,0.8385,0.845,0.8477,0.8524,0.8555,0.8615,0.8609,0.8691,0.8667,0.8699,0.8726,0.8729,0.8737,0.8729,0.8748,0.8787,0.8793,0.8744,0.8743,0.8743,0,0.7952,0.8061,0.8131,0.8164,0.826,0.8291,0.8332,0.8396,0.8436,0.8496,0.8523,0.8588,0.8623,0.8671,0.8718,0.8709,0.8795,0.8793,0.8818,0.8817,0.8834,0.8832,0.8878,0.8854,0.8854,0.8854,0.8854,0,0.7993,0.8048,0.813,0.8173,0.8235,0.829,0.8349,0.8392,0.8449,0.8499,0.8536,0.8581,0.864,0.8692,0.8728,0.8791,0.8806,0.8828,0.8837,0.8825,0.8822,0.8847,0.8845,0.8856,0.8855,0.8855,0.8855,0,0.7999,0.8057,0.8136,0.8221,0.8243,0.8285,0.8357,0.8399,0.8441,0.8504,0.8522,0.8588,0.8651,0.8702,0.8784,0.8808,0.8873,0.8883,0.8852,0.8857,0.8879,0.8876,0.8942,0.8953,0.8921,0.8921,0.8922,0,0.8021,0.8065,0.8156,0.8194,0.8236,0.8295,0.8338,0.8393,0.8434,0.8512,0.8544,0.8611,0.8667,0.8765,0.8819,0.8881,0.8893,0.8912,0.8902,0.8889,0.8893,0.889,0.8894,0.8912,0.8913,0.8913,0.8913,0,0.8055,0.8082,0.8143,0.8215,0.8265,0.8323,0.8381,0.8409,0.8474,0.8518,0.8586,0.8629,0.8714,0.8779,0.8848,0.8886,0.891,0.8915,0.8924,0.8913,0.8893,0.8904,0.8855,0.8914,0.8913,0.8913,0.8913,0.8913,0.8071,0.8112,0.8183,0.8249,0.83,0.8354,0.8398,0.8447,0.8505,0.8581,0.8608,0.8677,0.8739,0.8834,0.8873,0.8926,0.8928,0.8941,0.8944,0.8946,0.8945,0.8885,0.8938,0.8938,0.8938,0.8938,0.8938,0,0.8107,0.8155,0.8216,0.8298,0.835,0.8371,0.8437,0.8478,0.8539,0.8597,0.8652,0.8729,0.8792,0.8851,0.8916,0.8946,0.8959,0.8962,0.896,0.8968,0.8939,0.8925,0.8951,0.8951,0.8951,0.8951,0.8951,0.8951,0.8132,0.8203,0.8237,0.8333,0.8379,0.845,0.8485,0.8534,0.8581,0.8666,0.872,0.8759,0.8817,0.8887,0.8945,0.896,0.8982,0.8983,0.9,0.8972,0.897,0.8968,0.8956,0.8987,0.8987,0.9025,0.9026,0.9026]}]]